Time,TemperatureF,DewpointF,PressureIn,WindDirection,WindDirectionDegrees,WindSpeedMPH,WindSpeedGustMPH,Humidity,HourlyPrecipIn,Conditions,Clouds,dailyrainin,SoftwareType,DateUTC
2013-10-21 00:00:00,47.0,44.2,30.15,NNE,18,0.0,0.0,90,0.00,,,0.00,Wunderground v.1.15,2013-10-21 04:00:00,
2013-10-21 00:05:00,46.9,44.1,30.15,NNE,18,0.0,0.0,90,0.00,,,0.00,Wunderground v.1.15,2013-10-21 04:05:00,
2013-10-21 00:10:00,46.9,44.1,30.15,NNE,18,0.0,0.0,90,0.00,,,0.00,Wunderground v.1.15,2013-10-21 04:10:00,
2013-10-21 00:15:00,46.9,44.1,30.15,NNE,18,0.0,0.0,90,0.00,,,0.00,Wunderground v.1.15,2013-10-21 04:15:00,
2013-10-21 00:20:00,46.9,44.1,30.16,NNE,18,0.0,0.0,90,0.00,,,0.00,Wunderground v.1.15,2013-10-21 04:20:00,
2013-10-21 00:25:00,46.9,44.4,30.16,NNE,18,0.0,0.0,91,0.00,,,0.00,Wunderground v.1.15,2013-10-21 04:25:00,
2013-10-21 00:30:00,46.8,44.0,30.15,NNE,18,0.0,0.0,90,0.00,,,0.00,Wunderground v.1.15,2013-10-21 04:30:00,
2013-10-21 00:40:00,46.5,44.0,30.16,NNE,18,0.0,0.0,91,0.00,,,0.00,Wunderground v.1.15,2013-10-21 04:40:00,
2013-10-21 00:45:00,46.2,43.7,30.15,NNE,18,0.0,0.0,91,0.00,,,0.00,Wunderground v.1.15,2013-10-21 04:45:00,
2013-10-21 00:50:00,46.1,43.9,30.15,NNE,18,0.0,0.0,92,0.00,,,0.00,Wunderground v.1.15,2013-10-21 04:50:00,
2013-10-21 00:55:00,46.1,43.9,30.15,NNE,18,0.0,0.0,92,0.00,,,0.00,Wunderground v.1.15,2013-10-21 04:55:00,
2013-10-21 01:00:00,46.1,43.9,30.15,NNE,18,0.0,0.0,92,0.00,,,0.00,Wunderground v.1.15,2013-10-21 05:00:00,
2013-10-21 01:10:00,46.2,44.0,30.15,NNE,18,0.0,0.0,92,0.00,,,0.00,Wunderground v.1.15,2013-10-21 05:10:00,
2013-10-21 01:15:00,46.1,43.9,30.15,NNE,18,0.0,0.0,92,0.00,,,0.00,Wunderground v.1.15,2013-10-21 05:15:00,
2013-10-21 01:20:00,45.9,43.7,30.15,NNE,18,0.0,0.0,92,0.00,,,0.00,Wunderground v.1.15,2013-10-21 05:20:00,
2013-10-21 01:25:00,45.5,43.0,30.15,NNE,18,0.0,0.0,91,0.00,,,0.00,Wunderground v.1.15,2013-10-21 05:25:00,
2013-10-21 01:30:00,45.3,43.1,30.15,NNE,18,0.0,0.0,92,0.00,,,0.00,Wunderground v.1.15,2013-10-21 05:30:00,
2013-10-21 01:35:00,45.2,43.0,30.15,NNE,18,0.0,0.0,92,0.00,,,0.00,Wunderground v.1.15,2013-10-21 05:35:00,
2013-10-21 01:40:00,45.2,43.0,30.15,NNE,18,0.0,0.0,92,0.00,,,0.00,Wunderground v.1.15,2013-10-21 05:40:00,
2013-10-21 01:50:00,45.2,43.3,30.15,NNE,18,0.0,0.0,93,0.00,,,0.00,Wunderground v.1.15,2013-10-21 05:50:00,
2013-10-21 01:55:00,45.2,43.3,30.15,NNE,18,0.0,0.0,93,0.00,,,0.00,Wunderground v.1.15,2013-10-21 05:55:00,
2013-10-21 02:00:00,45.1,43.2,30.15,NNE,18,0.0,0.0,93,0.00,,,0.00,Wunderground v.1.15,2013-10-21 06:00:00,
2013-10-21 02:10:00,44.7,42.8,30.15,NNE,18,0.0,0.0,93,0.00,,,0.00,Wunderground v.1.15,2013-10-21 06:10:00,
2013-10-21 02:15:00,44.4,42.5,30.15,NNE,18,0.0,0.0,93,0.00,,,0.00,Wunderground v.1.15,2013-10-21 06:15:00,
2013-10-21 02:25:00,44.3,42.4,30.15,NNE,18,0.0,0.0,93,0.00,,,0.00,Wunderground v.1.15,2013-10-21 06:25:00,
2013-10-21 02:30:00,44.3,42.7,30.15,NNE,18,0.0,0.0,94,0.00,,,0.00,Wunderground v.1.15,2013-10-21 06:30:00,
2013-10-21 02:35:00,44.5,42.9,30.15,NNE,18,0.0,0.0,94,0.00,,,0.00,Wunderground v.1.15,2013-10-21 06:35:00,
2013-10-21 02:40:00,44.5,42.9,30.15,NNE,18,0.0,0.0,94,0.00,,,0.00,Wunderground v.1.15,2013-10-21 06:40:00,
2013-10-21 02:45:00,44.6,43.0,30.15,NNE,18,0.0,0.0,94,0.00,,,0.00,Wunderground v.1.15,2013-10-21 06:45:00,
2013-10-21 02:50:00,44.5,42.9,30.15,NNE,18,0.0,0.0,94,0.00,,,0.00,Wunderground v.1.15,2013-10-21 06:50:00,
2013-10-21 03:00:00,44.2,42.6,30.15,NNE,18,0.0,0.0,94,0.00,,,0.00,Wunderground v.1.15,2013-10-21 07:00:00,
2013-10-21 03:10:00,44.0,42.4,30.15,NNE,18,0.0,0.0,94,0.00,,,0.00,Wunderground v.1.15,2013-10-21 07:10:00,
2013-10-21 03:15:00,43.8,41.9,30.15,NNE,18,0.0,0.0,93,0.00,,,0.00,Wunderground v.1.15,2013-10-21 07:15:00,
2013-10-21 03:20:00,43.5,41.9,30.15,NNE,18,0.0,0.0,94,0.00,,,0.00,Wunderground v.1.15,2013-10-21 07:20:00,
2013-10-21 03:25:00,43.3,41.7,30.15,NNE,18,0.0,0.0,94,0.00,,,0.00,Wunderground v.1.15,2013-10-21 07:25:00,
2013-10-21 03:35:00,43.2,41.6,30.14,NNE,18,0.0,0.0,94,0.00,,,0.00,Wunderground v.1.15,2013-10-21 07:35:00,
2013-10-21 03:40:00,43.4,42.1,30.14,NNE,18,0.0,0.0,95,0.00,,,0.00,Wunderground v.1.15,2013-10-21 07:40:00,
2013-10-21 03:45:00,43.4,41.8,30.14,NNE,18,0.0,0.0,94,0.00,,,0.00,Wunderground v.1.15,2013-10-21 07:45:00,
2013-10-21 03:50:00,43.3,41.7,30.14,NNE,18,0.0,0.0,94,0.00,,,0.00,Wunderground v.1.15,2013-10-21 07:50:00,
2013-10-21 03:55:00,43.2,41.6,30.14,NNE,18,0.0,0.0,94,0.00,,,0.00,Wunderground v.1.15,2013-10-21 07:55:00,
2013-10-21 04:00:00,43.1,41.5,30.14,NNE,18,0.0,0.0,94,0.00,,,0.00,Wunderground v.1.15,2013-10-21 08:00:00,
2013-10-21 04:10:00,43.2,41.9,30.14,NNE,18,0.0,0.0,95,0.00,,,0.00,Wunderground v.1.15,2013-10-21 08:10:00,
2013-10-21 04:15:00,43.2,41.9,30.14,NNE,18,0.0,0.0,95,0.00,,,0.00,Wunderground v.1.15,2013-10-21 08:15:00,
2013-10-21 04:20:00,43.4,42.1,30.14,NNE,18,0.0,0.0,95,0.00,,,0.00,Wunderground v.1.15,2013-10-21 08:20:00,
2013-10-21 04:25:00,43.8,42.7,30.14,NNE,18,0.0,0.0,96,0.00,,,0.00,Wunderground v.1.15,2013-10-21 08:25:00,
2013-10-21 04:30:00,44.0,42.7,30.14,NNE,18,0.0,0.0,95,0.00,,,0.00,Wunderground v.1.15,2013-10-21 08:30:00,
2013-10-21 04:35:00,44.1,42.8,30.14,NNE,18,0.0,0.0,95,0.00,,,0.00,Wunderground v.1.15,2013-10-21 08:35:00,
2013-10-21 04:40:00,44.0,42.7,30.14,NNE,18,0.0,0.0,95,0.00,,,0.00,Wunderground v.1.15,2013-10-21 08:40:00,
2013-10-21 04:50:00,43.4,41.8,30.14,NNE,18,0.0,0.0,94,0.00,,,0.00,Wunderground v.1.15,2013-10-21 08:50:00,
2013-10-21 04:55:00,43.2,41.9,30.14,NNE,18,0.0,0.0,95,0.00,,,0.00,Wunderground v.1.15,2013-10-21 08:55:00,
2013-10-21 05:00:00,43.1,41.8,30.14,NNE,18,0.0,0.0,95,0.00,,,0.00,Wunderground v.1.15,2013-10-21 09:00:00,
2013-10-21 05:10:00,43.6,42.5,30.14,NNE,18,0.0,0.0,96,0.00,,,0.00,Wunderground v.1.15,2013-10-21 09:10:00,
2013-10-21 05:15:00,43.9,42.8,30.14,NNE,18,0.0,0.0,96,0.00,,,0.00,Wunderground v.1.15,2013-10-21 09:15:00,
2013-10-21 05:25:00,43.4,41.8,30.14,NNE,18,0.0,0.0,94,0.00,,,0.00,Wunderground v.1.15,2013-10-21 09:25:00,
2013-10-21 05:30:00,42.8,41.2,30.15,NNE,18,0.0,0.0,94,0.00,,,0.00,Wunderground v.1.15,2013-10-21 09:30:00,
2013-10-21 05:35:00,42.5,41.2,30.15,NNE,18,0.0,0.0,95,0.00,,,0.01,Wunderground v.1.15,2013-10-21 09:35:00,
2013-10-21 05:40:00,42.1,40.5,30.15,NNE,18,0.0,0.0,94,0.00,,,0.01,Wunderground v.1.15,2013-10-21 09:40:00,
2013-10-21 06:05:00,42.6,41.5,30.16,NNE,18,0.0,0.0,96,0.00,,,0.01,Wunderground v.1.15,2013-10-21 10:05:00,
2013-10-21 06:10:00,42.8,41.7,30.16,NNE,18,0.0,0.0,96,0.00,,,0.01,Wunderground v.1.15,2013-10-21 10:10:00,
2013-10-21 06:15:00,42.6,41.3,30.16,NNE,18,0.0,0.0,95,0.00,,,0.01,Wunderground v.1.15,2013-10-21 10:15:00,
2013-10-21 06:20:00,42.3,41.0,30.16,NNE,18,0.0,0.0,95,0.00,,,0.01,Wunderground v.1.15,2013-10-21 10:20:00,
2013-10-21 06:30:00,42.0,40.7,30.16,NNE,18,0.0,0.0,95,0.00,,,0.01,Wunderground v.1.15,2013-10-21 10:30:00,
2013-10-21 06:40:00,41.8,40.7,30.16,NNE,18,0.0,0.0,96,0.00,,,0.01,Wunderground v.1.15,2013-10-21 10:40:00,
2013-10-21 06:45:00,41.9,40.8,30.16,NNE,18,0.0,0.0,96,0.00,,,0.01,Wunderground v.1.15,2013-10-21 10:45:00,
2013-10-21 06:55:00,41.7,40.6,30.17,NNE,18,0.0,0.0,96,0.00,,,0.01,Wunderground v.1.15,2013-10-21 10:55:00,
2013-10-21 07:00:00,41.6,40.5,30.17,NNE,18,0.0,0.0,96,0.00,,,0.01,Wunderground v.1.15,2013-10-21 11:00:00,
2013-10-21 07:10:00,41.5,40.2,30.17,NNE,18,0.0,0.0,95,0.00,,,0.01,Wunderground v.1.15,2013-10-21 11:10:00,
2013-10-21 07:15:00,41.3,40.2,30.18,NNE,18,0.0,0.0,96,0.00,,,0.01,Wunderground v.1.15,2013-10-21 11:15:00,
2013-10-21 07:20:00,41.2,40.1,30.18,NNE,18,0.0,0.0,96,0.00,,,0.01,Wunderground v.1.15,2013-10-21 11:20:00,
2013-10-21 07:30:00,41.5,40.4,30.18,NNE,18,0.0,0.0,96,0.00,,,0.01,Wunderground v.1.15,2013-10-21 11:30:00,
2013-10-21 07:35:00,41.5,40.4,30.18,NNE,18,0.0,0.0,96,0.00,,,0.01,Wunderground v.1.15,2013-10-21 11:35:00,
2013-10-21 07:40:00,41.4,40.3,30.18,NNE,18,0.0,0.0,96,0.00,,,0.01,Wunderground v.1.15,2013-10-21 11:40:00,
2013-10-21 07:45:00,41.4,40.3,30.18,NNE,18,0.0,0.0,96,0.00,,,0.01,Wunderground v.1.15,2013-10-21 11:45:00,
2013-10-21 07:50:00,41.7,40.6,30.18,NNE,18,0.0,0.0,96,0.00,,,0.01,Wunderground v.1.15,2013-10-21 11:50:00,
2013-10-21 07:55:00,41.8,40.7,30.19,NNE,18,0.0,0.0,96,0.00,,,0.01,Wunderground v.1.15,2013-10-21 11:55:00,
2013-10-21 08:00:00,42.0,40.9,30.19,NNE,18,0.0,0.0,96,0.00,,,0.01,Wunderground v.1.15,2013-10-21 12:00:00,
2013-10-21 08:10:00,42.7,41.9,30.19,NNE,18,0.0,0.0,97,0.00,,,0.01,Wunderground v.1.15,2013-10-21 12:10:00,
2013-10-21 08:15:00,43.0,42.2,30.19,NNE,18,0.0,0.0,97,0.00,,,0.01,Wunderground v.1.15,2013-10-21 12:15:00,
2013-10-21 08:20:00,43.2,42.4,30.19,NNE,18,0.0,0.0,97,0.00,,,0.01,Wunderground v.1.15,2013-10-21 12:20:00,
2013-10-21 08:25:00,43.4,42.6,30.19,NNE,18,0.0,0.0,97,0.00,,,0.01,Wunderground v.1.15,2013-10-21 12:25:00,
2013-10-21 08:30:00,43.7,42.9,30.20,NNE,18,0.0,0.0,97,0.00,,,0.01,Wunderground v.1.15,2013-10-21 12:30:00,
2013-10-21 08:35:00,44.5,43.7,30.19,NNE,18,0.0,0.0,97,0.00,,,0.01,Wunderground v.1.15,2013-10-21 12:35:00,
2013-10-21 08:45:00,46.8,46.0,30.19,NNE,18,0.0,0.0,97,0.00,,,0.01,Wunderground v.1.15,2013-10-21 12:45:00,
2013-10-21 08:50:00,47.6,46.8,30.19,NNE,18,0.0,0.0,97,0.00,,,0.01,Wunderground v.1.15,2013-10-21 12:50:00,
2013-10-21 08:55:00,48.3,47.5,30.19,NNE,18,0.0,0.0,97,0.00,,,0.01,Wunderground v.1.15,2013-10-21 12:55:00,
2013-10-21 09:00:00,49.3,48.5,30.19,NNE,18,0.0,0.0,97,0.00,,,0.01,Wunderground v.1.15,2013-10-21 13:00:00,
2013-10-21 09:10:00,51.0,49.9,30.19,North,5,0.0,0.0,96,0.00,,,0.01,Wunderground v.1.15,2013-10-21 13:10:00,
2013-10-21 09:15:00,51.8,50.4,30.20,North,360,0.0,0.0,95,0.00,,,0.01,Wunderground v.1.15,2013-10-21 13:15:00,
2013-10-21 09:20:00,52.4,50.4,30.20,North,360,0.0,0.0,93,0.00,,,0.01,Wunderground v.1.15,2013-10-21 13:20:00,
2013-10-21 09:25:00,53.3,51.0,30.20,North,360,0.0,0.0,92,0.00,,,0.01,Wunderground v.1.15,2013-10-21 13:25:00,
2013-10-21 09:30:00,54.1,51.2,30.20,North,360,0.0,0.0,90,0.00,,,0.01,Wunderground v.1.15,2013-10-21 13:30:00,
2013-10-21 09:35:00,55.0,51.5,30.20,North,360,0.0,0.0,88,0.00,,,0.01,Wunderground v.1.15,2013-10-21 13:35:00,
2013-10-21 09:45:00,56.0,51.6,30.19,NNE,19,0.0,0.0,85,0.00,,,0.01,Wunderground v.1.15,2013-10-21 13:45:00,
2013-10-21 09:50:00,56.1,50.7,30.19,NNE,23,0.0,0.0,82,0.00,,,0.01,Wunderground v.1.15,2013-10-21 13:50:00,
2013-10-21 09:55:00,56.3,51.5,30.19,NNE,31,0.0,1.0,84,0.00,,,0.01,Wunderground v.1.15,2013-10-21 13:55:00,
2013-10-21 10:05:00,57.4,51.9,30.19,NE,51,0.0,0.0,82,0.00,,,0.01,Wunderground v.1.15,2013-10-21 14:05:00,
2013-10-21 10:10:00,57.7,51.9,30.19,ENE,62,0.0,0.0,81,0.00,,,0.01,Wunderground v.1.15,2013-10-21 14:10:00,
2013-10-21 10:15:00,57.9,52.4,30.19,ENE,67,0.0,0.0,82,0.00,,,0.01,Wunderground v.1.15,2013-10-21 14:15:00,
2013-10-21 10:20:00,58.4,51.6,30.19,ENE,68,0.0,3.0,78,0.00,,,0.01,Wunderground v.1.15,2013-10-21 14:20:00,
2013-10-21 10:25:00,58.8,51.6,30.19,ENE,77,0.0,3.0,77,0.00,,,0.01,Wunderground v.1.15,2013-10-21 14:25:00,
2013-10-21 10:30:00,59.2,53.0,30.19,ENE,77,0.0,0.0,80,0.00,,,0.01,Wunderground v.1.15,2013-10-21 14:30:00,
2013-10-21 10:40:00,59.5,52.3,30.18,East,90,0.0,1.0,77,0.00,,,0.01,Wunderground v.1.15,2013-10-21 14:40:00,
2013-10-21 10:45:00,60.2,51.1,30.19,East,90,0.0,1.0,72,0.00,,,0.01,Wunderground v.1.15,2013-10-21 14:45:00,
2013-10-21 10:50:00,60.4,52.1,30.19,East,89,0.0,0.0,74,0.00,,,0.01,Wunderground v.1.15,2013-10-21 14:50:00,
2013-10-21 10:55:00,60.5,51.8,30.18,East,90,0.0,0.0,73,0.00,,,0.01,Wunderground v.1.15,2013-10-21 14:55:00,
2013-10-21 11:00:00,60.2,50.8,30.18,ESE,107,1.0,1.0,71,0.00,,,0.01,Wunderground v.1.15,2013-10-21 15:00:00,
2013-10-21 11:10:00,61.2,51.7,30.19,ESE,110,0.0,0.0,71,0.00,,,0.01,Wunderground v.1.15,2013-10-21 15:10:00,
2013-10-21 11:15:00,60.9,48.6,30.19,ESE,111,0.0,0.0,64,0.00,,,0.01,Wunderground v.1.15,2013-10-21 15:15:00,
2013-10-21 11:20:00,61.2,50.6,30.19,ESE,111,0.0,0.0,68,0.00,,,0.01,Wunderground v.1.15,2013-10-21 15:20:00,
2013-10-21 11:25:00,61.6,50.1,30.19,ESE,111,0.0,0.0,66,0.00,,,0.01,Wunderground v.1.15,2013-10-21 15:25:00,
2013-10-21 11:30:00,61.7,48.1,30.18,ESE,109,0.0,0.0,61,0.00,,,0.01,Wunderground v.1.15,2013-10-21 15:30:00,
2013-10-21 11:35:00,62.4,50.5,30.18,ESE,109,0.0,0.0,65,0.00,,,0.01,Wunderground v.1.15,2013-10-21 15:35:00,
2013-10-21 11:40:00,62.6,49.4,30.18,ESE,113,0.0,4.0,62,0.00,,,0.01,Wunderground v.1.15,2013-10-21 15:40:00,
2013-10-21 11:50:00,62.7,47.7,30.18,East,101,0.0,0.0,58,0.00,,,0.01,Wunderground v.1.15,2013-10-21 15:50:00,
2013-10-21 12:00:00,63.5,48.5,30.18,ESE,107,0.0,0.0,58,0.00,,,0.01,Wunderground v.1.15,2013-10-21 16:00:00,
2013-10-21 12:10:00,63.5,48.0,30.18,ESE,106,0.0,0.0,57,0.00,,,0.01,Wunderground v.1.15,2013-10-21 16:10:00,
2013-10-21 12:15:00,63.3,47.3,30.18,ESE,109,1.0,2.0,56,0.00,,,0.01,Wunderground v.1.15,2013-10-21 16:15:00,
2013-10-21 12:25:00,62.9,49.2,30.18,East,82,0.0,1.0,61,0.00,,,0.01,Wunderground v.1.15,2013-10-21 16:25:00,
2013-10-21 12:30:00,63.4,46.9,30.17,East,83,0.0,2.0,55,0.00,,,0.01,Wunderground v.1.15,2013-10-21 16:30:00,
2013-10-21 12:35:00,63.4,46.0,30.17,East,101,1.0,2.0,53,0.00,,,0.01,Wunderground v.1.15,2013-10-21 16:35:00,
2013-10-21 12:40:00,63.7,47.2,30.17,East,96,1.0,1.0,55,0.00,,,0.01,Wunderground v.1.15,2013-10-21 16:40:00,
2013-10-21 12:45:00,63.8,46.8,30.17,East,96,0.0,1.0,54,0.00,,,0.01,Wunderground v.1.15,2013-10-21 16:45:00,
2013-10-21 12:50:00,63.4,46.9,30.17,East,94,0.0,0.0,55,0.00,,,0.01,Wunderground v.1.15,2013-10-21 16:50:00,
2013-10-21 13:00:00,63.7,45.7,30.16,South,182,2.0,2.0,52,0.00,,,0.01,Wunderground v.1.15,2013-10-21 17:00:00,
2013-10-21 13:10:00,63.4,46.9,30.16,South,186,1.0,1.0,55,0.00,,,0.01,Wunderground v.1.15,2013-10-21 17:10:00,
2013-10-21 13:15:00,63.3,48.3,30.15,SSW,205,1.0,1.0,58,0.00,,,0.01,Wunderground v.1.15,2013-10-21 17:15:00,
2013-10-21 13:20:00,63.8,48.3,30.15,SSW,205,1.0,1.0,57,0.00,,,0.01,Wunderground v.1.15,2013-10-21 17:20:00,
2013-10-21 13:30:00,64.8,47.8,30.14,SSW,213,1.0,1.0,54,0.00,,,0.01,Wunderground v.1.15,2013-10-21 17:30:00,
2013-10-21 13:35:00,64.5,48.4,30.14,SW,226,2.0,2.0,56,0.00,,,0.01,Wunderground v.1.15,2013-10-21 17:35:00,
2013-10-21 13:40:00,64.7,48.6,30.14,SW,226,1.0,1.0,56,0.00,,,0.01,Wunderground v.1.15,2013-10-21 17:40:00,
2013-10-21 13:45:00,65.5,49.4,30.14,SW,226,1.0,1.0,56,0.00,,,0.01,Wunderground v.1.15,2013-10-21 17:45:00,
2013-10-21 13:50:00,65.8,49.7,30.13,SSW,208,1.0,1.0,56,0.00,,,0.01,Wunderground v.1.15,2013-10-21 17:50:00,
2013-10-21 13:55:00,65.2,49.1,30.13,South,190,1.0,5.0,56,0.00,,,0.01,Wunderground v.1.15,2013-10-21 17:55:00,
2013-10-21 14:05:00,65.4,47.3,30.12,South,174,2.0,2.0,52,0.00,,,0.01,Wunderground v.1.15,2013-10-21 18:05:00,
2013-10-21 14:10:00,65.4,47.3,30.12,South,182,1.0,5.0,52,0.00,,,0.01,Wunderground v.1.15,2013-10-21 18:10:00,
2013-10-21 14:15:00,65.0,47.9,30.12,SSW,205,2.0,6.0,54,0.00,,,0.01,Wunderground v.1.15,2013-10-21 18:15:00,
2013-10-21 14:20:00,64.9,47.9,30.12,SSW,207,2.0,2.0,54,0.00,,,0.01,Wunderground v.1.15,2013-10-21 18:20:00,
2013-10-21 14:25:00,65.2,48.6,30.11,SSW,207,1.0,4.0,55,0.00,,,0.01,Wunderground v.1.15,2013-10-21 18:25:00,
2013-10-21 14:30:00,65.4,48.3,30.11,SSW,205,2.0,6.0,54,0.00,,,0.01,Wunderground v.1.15,2013-10-21 18:30:00,
2013-10-21 14:40:00,65.1,48.5,30.11,WSW,247,3.0,3.0,55,0.00,,,0.01,Wunderground v.1.15,2013-10-21 18:40:00,
2013-10-21 14:45:00,65.3,48.2,30.11,WSW,247,2.0,3.0,54,0.00,,,0.01,Wunderground v.1.15,2013-10-21 18:45:00,
2013-10-21 14:50:00,64.9,49.3,30.11,WSW,247,1.0,1.0,57,0.00,,,0.01,Wunderground v.1.15,2013-10-21 18:50:00,
2013-10-21 14:55:00,65.2,48.6,30.11,WSW,247,1.0,1.0,55,0.00,,,0.01,Wunderground v.1.15,2013-10-21 18:55:00,
2013-10-21 15:00:00,65.6,49.0,30.10,WSW,240,0.0,4.0,55,0.00,,,0.01,Wunderground v.1.15,2013-10-21 19:00:00,
2013-10-21 15:10:00,66.4,50.2,30.10,SW,220,1.0,4.0,56,0.00,,,0.01,Wunderground v.1.15,2013-10-21 19:10:00,
2013-10-21 15:15:00,66.2,48.6,30.10,SW,215,1.0,4.0,53,0.00,,,0.01,Wunderground v.1.15,2013-10-21 19:15:00,
2013-10-21 15:25:00,65.5,48.9,30.09,SW,215,1.0,1.0,55,0.00,,,0.01,Wunderground v.1.15,2013-10-21 19:25:00,
2013-10-21 15:30:00,65.7,50.0,30.09,SW,215,2.0,2.0,57,0.00,,,0.01,Wunderground v.1.15,2013-10-21 19:30:00,
2013-10-21 15:35:00,66.2,49.1,30.09,SW,215,2.0,2.0,54,0.00,,,0.01,Wunderground v.1.15,2013-10-21 19:35:00,
2013-10-21 15:40:00,66.8,48.6,30.09,SW,215,1.0,1.0,52,0.00,,,0.01,Wunderground v.1.15,2013-10-21 19:40:00,
2013-10-21 15:50:00,66.5,48.3,30.09,SW,215,0.0,0.0,52,0.00,,,0.01,Wunderground v.1.15,2013-10-21 19:50:00,
2013-10-21 15:55:00,67.1,49.9,30.08,SW,215,0.0,4.0,54,0.00,,,0.01,Wunderground v.1.15,2013-10-21 19:55:00,
2013-10-21 16:00:00,66.7,47.5,30.08,South,190,1.0,2.0,50,0.00,,,0.01,Wunderground v.1.15,2013-10-21 20:00:00,
2013-10-21 16:10:00,66.6,47.9,30.08,South,190,1.0,1.0,51,0.00,,,0.01,Wunderground v.1.15,2013-10-21 20:10:00,
2013-10-21 16:20:00,66.5,46.7,30.08,South,190,0.0,0.0,49,0.00,,,0.01,Wunderground v.1.15,2013-10-21 20:20:00,
2013-10-21 16:25:00,66.7,47.5,30.08,South,190,0.0,0.0,50,0.00,,,0.01,Wunderground v.1.15,2013-10-21 20:25:00,
2013-10-21 16:30:00,66.8,46.5,30.08,South,190,0.0,0.0,48,0.00,,,0.01,Wunderground v.1.15,2013-10-21 20:30:00,
2013-10-21 16:35:00,66.4,47.2,30.08,SSE,161,0.0,0.0,50,0.00,,,0.01,Wunderground v.1.15,2013-10-21 20:35:00,
2013-10-21 16:40:00,66.0,47.3,30.08,SSE,161,0.0,0.0,51,0.00,,,0.01,Wunderground v.1.15,2013-10-21 20:40:00,
2013-10-21 16:50:00,66.4,48.2,30.08,SSE,161,0.0,0.0,52,0.00,,,0.01,Wunderground v.1.15,2013-10-21 20:50:00,
2013-10-21 16:55:00,66.6,48.4,30.08,SSE,161,0.0,0.0,52,0.00,,,0.01,Wunderground v.1.15,2013-10-21 20:55:00,
2013-10-21 17:00:00,66.6,48.9,30.08,SSE,161,0.0,0.0,53,0.00,,,0.01,Wunderground v.1.15,2013-10-21 21:00:00,
2013-10-21 17:10:00,65.9,47.3,30.08,SSE,161,0.0,0.0,51,0.00,,,0.01,Wunderground v.1.15,2013-10-21 21:10:00,
2013-10-21 17:20:00,65.0,47.9,30.08,SSE,161,0.0,0.0,54,0.00,,,0.01,Wunderground v.1.15,2013-10-21 21:20:00,
2013-10-21 17:25:00,64.7,49.6,30.08,SSE,161,0.0,0.0,58,0.00,,,0.01,Wunderground v.1.15,2013-10-21 21:25:00,
2013-10-21 17:30:00,64.1,51.7,30.08,SSE,161,0.0,0.0,64,0.00,,,0.01,Wunderground v.1.15,2013-10-21 21:30:00,
2013-10-21 17:35:00,63.1,51.1,30.07,SSE,161,0.0,0.0,65,0.00,,,0.01,Wunderground v.1.15,2013-10-21 21:35:00,
2013-10-21 17:40:00,62.1,51.0,30.07,SSE,161,0.0,0.0,67,0.00,,,0.01,Wunderground v.1.15,2013-10-21 21:40:00,
2013-10-21 17:45:00,61.3,50.6,30.07,SSE,161,0.0,0.0,68,0.00,,,0.01,Wunderground v.1.15,2013-10-21 21:45:00,
2013-10-21 17:50:00,60.8,51.0,30.08,SSE,161,0.0,0.0,70,0.00,,,0.01,Wunderground v.1.15,2013-10-21 21:50:00,
2013-10-21 17:55:00,60.4,51.0,30.07,SSE,161,0.0,0.0,71,0.00,,,0.01,Wunderground v.1.15,2013-10-21 21:55:00,
2013-10-21 18:05:00,59.7,51.0,30.07,SSE,162,0.0,0.0,73,0.00,,,0.01,Wunderground v.1.15,2013-10-21 22:05:00,
2013-10-21 18:10:00,59.4,51.1,30.07,SSE,162,0.0,0.0,74,0.00,,,0.01,Wunderground v.1.15,2013-10-21 22:10:00,
2013-10-21 18:15:00,59.1,50.8,30.07,SSE,162,0.0,0.0,74,0.00,,,0.01,Wunderground v.1.15,2013-10-21 22:15:00,
2013-10-21 18:20:00,58.6,50.7,30.08,SSE,162,0.0,0.0,75,0.00,,,0.01,Wunderground v.1.15,2013-10-21 22:20:00,
2013-10-21 18:25:00,58.2,50.3,30.07,SSE,162,0.0,0.0,75,0.00,,,0.01,Wunderground v.1.15,2013-10-21 22:25:00,
2013-10-21 18:30:00,57.8,49.9,30.07,SSE,162,0.0,0.0,75,0.00,,,0.01,Wunderground v.1.15,2013-10-21 22:30:00,
2013-10-21 18:40:00,57.3,50.1,30.07,SSE,162,0.0,0.0,77,0.00,,,0.01,Wunderground v.1.15,2013-10-21 22:40:00,
2013-10-21 18:45:00,56.9,49.8,30.08,SSE,162,0.0,0.0,77,0.00,,,0.01,Wunderground v.1.15,2013-10-21 22:45:00,
2013-10-21 18:50:00,56.7,49.9,30.08,SSE,162,0.0,0.0,78,0.00,,,0.01,Wunderground v.1.15,2013-10-21 22:50:00,
2013-10-21 18:55:00,56.5,49.7,30.08,SSE,162,0.0,0.0,78,0.00,,,0.01,Wunderground v.1.15,2013-10-21 22:55:00,
2013-10-21 19:00:00,56.4,49.6,30.08,SSE,162,0.0,0.0,78,0.00,,,0.01,Wunderground v.1.15,2013-10-21 23:00:00,
2013-10-21 19:05:00,56.2,49.8,30.08,SSE,162,0.0,0.0,79,0.00,,,0.01,Wunderground v.1.15,2013-10-21 23:05:00,
2013-10-21 19:15:00,55.7,50.0,30.07,SSE,162,0.0,0.0,81,0.00,,,0.01,Wunderground v.1.15,2013-10-21 23:15:00,
2013-10-21 19:20:00,55.4,50.0,30.07,SSE,162,0.0,0.0,82,0.00,,,0.01,Wunderground v.1.15,2013-10-21 23:20:00,
2013-10-21 19:25:00,55.1,50.0,30.08,SSE,162,0.0,0.0,83,0.00,,,0.01,Wunderground v.1.15,2013-10-21 23:25:00,
2013-10-21 19:35:00,54.8,50.1,30.08,SSE,162,0.0,0.0,84,0.00,,,0.01,Wunderground v.1.15,2013-10-21 23:35:00,
2013-10-21 19:40:00,54.6,49.9,30.07,SSE,162,0.0,0.0,84,0.00,,,0.01,Wunderground v.1.15,2013-10-21 23:40:00,
2013-10-21 19:45:00,54.4,50.3,30.07,SSE,162,0.0,0.0,86,0.00,,,0.01,Wunderground v.1.15,2013-10-21 23:45:00,
2013-10-21 19:50:00,54.4,50.3,30.07,SSE,162,0.0,0.0,86,0.00,,,0.01,Wunderground v.1.15,2013-10-21 23:50:00,
2013-10-21 20:00:00,53.8,50.0,30.07,SSE,162,0.0,0.0,87,0.00,,,0.01,Wunderground v.1.15,2013-10-22 00:00:00,
2013-10-21 20:10:00,53.4,49.6,30.07,SSE,162,0.0,0.0,87,0.00,,,0.01,Wunderground v.1.15,2013-10-22 00:10:00,
2013-10-21 20:15:00,53.4,49.9,30.07,SSE,162,0.0,0.0,88,0.00,,,0.01,Wunderground v.1.15,2013-10-22 00:15:00,
2013-10-21 20:20:00,53.4,49.6,30.07,SSE,162,0.0,0.0,87,0.00,,,0.01,Wunderground v.1.15,2013-10-22 00:20:00,
2013-10-21 20:30:00,53.4,49.6,30.07,SSE,162,0.0,0.0,87,0.00,,,0.01,Wunderground v.1.15,2013-10-22 00:30:00,
2013-10-21 20:35:00,53.4,49.6,30.07,SSE,162,0.0,0.0,87,0.00,,,0.01,Wunderground v.1.15,2013-10-22 00:35:00,
2013-10-21 20:40:00,53.2,49.4,30.06,SSE,162,0.0,0.0,87,0.00,,,0.01,Wunderground v.1.15,2013-10-22 00:40:00,
2013-10-21 20:45:00,53.2,49.7,30.06,SSE,162,0.0,0.0,88,0.00,,,0.01,Wunderground v.1.15,2013-10-22 00:45:00,
2013-10-21 20:55:00,53.3,50.1,30.06,SSE,162,0.0,0.0,89,0.00,,,0.01,Wunderground v.1.15,2013-10-22 00:55:00,
2013-10-21 21:00:00,53.3,49.8,30.06,SSE,162,0.0,0.0,88,0.00,,,0.01,Wunderground v.1.15,2013-10-22 01:00:00,
2013-10-21 21:10:00,53.6,50.4,30.08,SSE,162,0.0,0.0,89,0.00,,,0.01,Wunderground v.1.15,2013-10-22 01:10:00,
2013-10-21 21:15:00,53.7,50.2,30.07,SSE,162,0.0,0.0,88,0.00,,,0.01,Wunderground v.1.15,2013-10-22 01:15:00,
2013-10-21 21:20:00,53.7,50.2,30.07,SSE,162,0.0,0.0,88,0.00,,,0.01,Wunderground v.1.15,2013-10-22 01:20:00,
2013-10-21 21:25:00,53.9,50.7,30.08,SSE,162,0.0,0.0,89,0.00,,,0.01,Wunderground v.1.15,2013-10-22 01:25:00,
2013-10-21 21:30:00,53.9,51.0,30.08,SSE,162,0.0,0.0,90,0.00,,,0.01,Wunderground v.1.15,2013-10-22 01:30:00,
2013-10-21 21:35:00,53.7,50.8,30.08,SSE,162,0.0,0.0,90,0.00,,,0.01,Wunderground v.1.15,2013-10-22 01:35:00,
2013-10-21 21:45:00,53.5,50.6,30.07,SSE,162,0.0,0.0,90,0.00,,,0.01,Wunderground v.1.15,2013-10-22 01:45:00,
2013-10-21 21:50:00,53.5,50.6,30.07,SSE,162,0.0,0.0,90,0.00,,,0.01,Wunderground v.1.15,2013-10-22 01:50:00,
2013-10-21 21:55:00,53.3,50.4,30.08,SSE,162,0.0,0.0,90,0.00,,,0.01,Wunderground v.1.15,2013-10-22 01:55:00,
2013-10-21 22:00:00,53.7,50.2,30.08,SSE,162,0.0,0.0,88,0.00,,,0.01,Wunderground v.1.15,2013-10-22 02:00:00,
2013-10-21 22:10:00,54.3,50.5,30.07,SSE,162,0.0,0.0,87,0.00,,,0.01,Wunderground v.1.15,2013-10-22 02:10:00,
2013-10-21 22:15:00,54.2,50.4,30.07,SSE,162,0.0,0.0,87,0.00,,,0.01,Wunderground v.1.15,2013-10-22 02:15:00,
2013-10-21 22:20:00,54.1,50.6,30.07,SSE,162,0.0,0.0,88,0.00,,,0.01,Wunderground v.1.15,2013-10-22 02:20:00,
2013-10-21 22:25:00,54.0,50.5,30.07,SSE,162,0.0,0.0,88,0.00,,,0.01,Wunderground v.1.15,2013-10-22 02:25:00,
2013-10-21 22:30:00,53.9,50.4,30.07,SSE,162,0.0,0.0,88,0.00,,,0.01,Wunderground v.1.15,2013-10-22 02:30:00,
2013-10-21 22:35:00,53.8,50.3,30.07,SSE,162,0.0,0.0,88,0.00,,,0.01,Wunderground v.1.15,2013-10-22 02:35:00,
2013-10-21 22:40:00,53.8,50.3,30.07,SSE,162,0.0,0.0,88,0.00,,,0.01,Wunderground v.1.15,2013-10-22 02:40:00,
2013-10-21 22:50:00,53.7,50.2,30.06,SSE,162,0.0,0.0,88,0.00,,,0.01,Wunderground v.1.15,2013-10-22 02:50:00,
2013-10-21 22:55:00,53.5,50.0,30.07,SSE,162,0.0,0.0,88,0.00,,,0.01,Wunderground v.1.15,2013-10-22 02:55:00,
2013-10-21 23:00:00,53.2,49.7,30.06,SSE,162,0.0,0.0,88,0.00,,,0.01,Wunderground v.1.15,2013-10-22 03:00:00,
2013-10-21 23:10:00,53.1,49.9,30.07,SSE,162,0.0,0.0,89,0.00,,,0.01,Wunderground v.1.15,2013-10-22 03:10:00,
2013-10-21 23:20:00,53.0,49.8,30.05,SSE,162,0.0,0.0,89,0.00,,,0.01,Wunderground v.1.15,2013-10-22 03:20:00,
2013-10-21 23:25:00,53.0,49.5,30.05,SSE,162,0.0,0.0,88,0.00,,,0.01,Wunderground v.1.15,2013-10-22 03:25:00,
2013-10-21 23:35:00,52.9,49.4,30.05,SSE,162,0.0,0.0,88,0.00,,,0.01,Wunderground v.1.15,2013-10-22 03:35:00,
2013-10-21 23:40:00,52.8,49.6,30.05,SSE,162,0.0,0.0,89,0.00,,,0.01,Wunderground v.1.15,2013-10-22 03:40:00,
2013-10-21 23:45:00,52.8,49.6,30.05,SSE,162,0.0,0.0,89,0.00,,,0.01,Wunderground v.1.15,2013-10-22 03:45:00,
2013-10-21 23:50:00,52.8,49.6,30.04,SSE,162,0.0,0.0,89,0.00,,,0.01,Wunderground v.1.15,2013-10-22 03:50:00,
2013-10-21 23:55:00,52.7,49.5,30.04,SSE,162,0.0,0.0,89,0.00,,,0.00,Wunderground v.1.15,2013-10-22 03:55:00,